When you browse on this site, cookies collect data to enhance your experience and personalize the content and advertising you see.
Visit our Privacy Policy to learn more. By continuing to use the site, you agree to this use of cookies and data.
  • In Romania
  • List of Countries
  • For 7 days
  • Water Temperature
  • Weather Map
  • Weather Widgets
  • user-avatar
    Login

    Hourly Weather San Cristóbal

    Today, 20 August, Tuesday

    Time Temperature Precipitation Wind Pressure Humidity
    00:00 +19°C° 0 mm 2 mps 672 mmHg 86%
    01:00 +19°C° 0 mm 2 mps 671 mmHg 85%
    02:00 +19°C° 0 mm 2 mps 671 mmHg 85%
    03:00 +19°C° 0 mm 2 mps 671 mmHg 85%
    04:00 +19°C° 0 mm 2 mps 671 mmHg 84%
    05:00 +20°C° 0.1 mm 2 mps 672 mmHg 82%
    06:00 +20°C° 0.1 mm 2 mps 672 mmHg 79%
    07:00 +21°C° 0.1 mm 2 mps 673 mmHg 76%
    08:00 +23°C° 0.3 mm 2 mps 673 mmHg 75%
    09:00 +24°C° 0.3 mm 2 mps 674 mmHg 75%
    10:00 +25°C° 0.3 mm 3 mps 674 mmHg 74%
    11:00 +24°C° 1.1 mm 2 mps 674 mmHg 78%
    12:00 +23°C° 1.1 mm 2 mps 673 mmHg 81%
    13:00 +23°C° 1.1 mm 2 mps 673 mmHg 84%
    14:00 +24°C° 0.1 mm 2 mps 672 mmHg 79%
    15:00 +25°C° 0.1 mm 2 mps 672 mmHg 73%
    16:00 +26°C° 0.1 mm 2 mps 672 mmHg 67%
    17:00 +24°C° 0.1 mm 2 mps 672 mmHg 74%
    18:00 +21°C° 0.1 mm 2 mps 672 mmHg 80%
    19:00 +20°C° 0.1 mm 2 mps 672 mmHg 87%
    20:00 +20°C° 0 mm 2 mps 672 mmHg 86%
    21:00 +19°C° 0 mm 2 mps 673 mmHg 85%
    22:00 +19°C° 0 mm 2 mps 673 mmHg 84%
    23:00 +19°C° 0 mm 2 mps 672 mmHg 82%

    Tomorrow, 21 August, Wednesday

    Time Temperature Precipitation Wind Pressure Humidity
    00:00 +19°C° 0 mm 2 mps 672 mmHg 80%
    01:00 +19°C° 0 mm 2 mps 672 mmHg 79%
    02:00 +19°C° 0 mm 2 mps 672 mmHg 79%
    03:00 +19°C° 0 mm 2 mps 672 mmHg 78%
    04:00 +19°C° 0 mm 2 mps 672 mmHg 78%
    05:00 +21°C° 0 mm 1 mps 672 mmHg 75%
    06:00 +22°C° 0 mm 1 mps 673 mmHg 71%
    07:00 +23°C° 0 mm 1 mps 673 mmHg 68%
    08:00 +25°C° 0.1 mm 2 mps 674 mmHg 61%
    09:00 +27°C° 0.1 mm 2 mps 675 mmHg 55%
    10:00 +29°C° 0.1 mm 3 mps 675 mmHg 49%
    11:00 +29°C° 0.1 mm 3 mps 675 mmHg 49%
    12:00 +30°C° 0.1 mm 3 mps 674 mmHg 48%
    13:00 +30°C° 0.1 mm 3 mps 674 mmHg 48%
    14:00 +29°C° 0.3 mm 3 mps 673 mmHg 54%
    15:00 +28°C° 0.3 mm 2 mps 672 mmHg 59%
    16:00 +27°C° 0.3 mm 2 mps 672 mmHg 65%
    17:00 +25°C° 0.3 mm 2 mps 672 mmHg 73%
    18:00 +23°C° 0.3 mm 2 mps 672 mmHg 81%
    19:00 +21°C° 0.3 mm 1 mps 672 mmHg 90%
    20:00 +21°C° 0 mm 1 mps 672 mmHg 90%
    21:00 +21°C° 0 mm 1 mps 672 mmHg 90%
    22:00 +20°C° 0 mm 1 mps 673 mmHg 90%
    23:00 +20°C° 0 mm 1 mps 672 mmHg 89%

    Day after tomorrow, 22 August, Thursday

    Time Temperature Precipitation Wind Pressure Humidity
    00:00 +20°C° 0 mm 1 mps 672 mmHg 88%
    01:00 +20°C° 0 mm 1 mps 672 mmHg 87%
    02:00 +19°C° 0 mm 1 mps 672 mmHg 86%
    03:00 +19°C° 0 mm 1 mps 671 mmHg 85%
    04:00 +19°C° 0 mm 1 mps 671 mmHg 84%
    05:00 +20°C° 0 mm 1 mps 672 mmHg 81%
    06:00 +21°C° 0 mm 1 mps 673 mmHg 77%
    07:00 +22°C° 0 mm 1 mps 673 mmHg 73%
    08:00 +25°C° 0 mm 2 mps 674 mmHg 64%
    09:00 +27°C° 0 mm 2 mps 675 mmHg 54%
    10:00 +29°C° 0 mm 2 mps 675 mmHg 44%
    11:00 +30°C° 0 mm 3 mps 674 mmHg 43%
    12:00 +31°C° 0 mm 3 mps 674 mmHg 41%
    13:00 +31°C° 0 mm 3 mps 673 mmHg 39%
    14:00 +31°C° 0.1 mm 3 mps 673 mmHg 42%
    15:00 +30°C° 0.1 mm 3 mps 672 mmHg 45%
    16:00 +29°C° 0.1 mm 2 mps 672 mmHg 48%
    17:00 +27°C° 0.1 mm 2 mps 672 mmHg 59%
    18:00 +24°C° 0.1 mm 2 mps 672 mmHg 70%
    19:00 +22°C° 0.1 mm 1 mps 671 mmHg 81%
    20:00 +22°C° 0 mm 1 mps 672 mmHg 81%
    21:00 +21°C° 0 mm 1 mps 672 mmHg 81%
    22:00 +20°C° 0 mm 2 mps 673 mmHg 81%
    23:00 +21°C° 0 mm 1 mps 673 mmHg 80%

    23 August, Friday

    Time Temperature Precipitation Wind Pressure Humidity
    00:00 +21°C° 0 mm 1 mps 672 mmHg 80%
    01:00 +21°C° 0 mm 1 mps 672 mmHg 79%
    02:00 +21°C° 0 mm 1 mps 672 mmHg 78%
    03:00 +20°C° 0 mm 1 mps 672 mmHg 77%
    04:00 +20°C° 0 mm 1 mps 671 mmHg 76%
    05:00 +21°C° 0 mm 1 mps 672 mmHg 73%
    06:00 +21°C° 0 mm 2 mps 673 mmHg 70%
    07:00 +23°C° 0 mm 2 mps 673 mmHg 67%
    08:00 +25°C° 0 mm 2 mps 674 mmHg 61%
    09:00 +27°C° 0 mm 3 mps 674 mmHg 55%
    10:00 +29°C° 0 mm 3 mps 675 mmHg 48%
    11:00 +29°C° 0.1 mm 3 mps 674 mmHg 48%
    12:00 +30°C° 0.1 mm 3 mps 674 mmHg 48%
    13:00 +30°C° 0.1 mm 3 mps 673 mmHg 49%
    14:00 +29°C° 0.1 mm 3 mps 673 mmHg 51%
    15:00 +29°C° 0.1 mm 3 mps 672 mmHg 53%
    16:00 +28°C° 0.1 mm 3 mps 672 mmHg 55%
    17:00 +26°C° 0.3 mm 2 mps 671 mmHg 67%
    18:00 +24°C° 0.3 mm 2 mps 671 mmHg 78%
    19:00 +21°C° 0.3 mm 2 mps 671 mmHg 89%
    20:00 +20°C° 0.3 mm 2 mps 672 mmHg 90%
    21:00 +20°C° 0.3 mm 2 mps 672 mmHg 90%
    22:00 +20°C° 0.3 mm 2 mps 673 mmHg 91%
    23:00 +20°C° 0 mm 2 mps 672 mmHg 91%

    24 August, Saturday

    Time Temperature Precipitation Wind Pressure Humidity
    00:00 +19°C° 0 mm 2 mps 672 mmHg 90%
    01:00 +19°C° 0 mm 2 mps 671 mmHg 90%
    02:00 +19°C° 0 mm 2 mps 671 mmHg 87%
    03:00 +20°C° 0 mm 2 mps 671 mmHg 85%
    04:00 +21°C° 0 mm 1 mps 671 mmHg 82%
    05:00 +21°C° 0 mm 1 mps 672 mmHg 79%
    06:00 +22°C° 0 mm 1 mps 672 mmHg 76%
    07:00 +23°C° 0 mm 1 mps 673 mmHg 73%
    08:00 +25°C° 0 mm 2 mps 673 mmHg 65%
    09:00 +27°C° 0 mm 2 mps 674 mmHg 56%
    10:00 +29°C° 0 mm 3 mps 675 mmHg 48%
    11:00 +29°C° 0 mm 3 mps 674 mmHg 47%
    12:00 +30°C° 0 mm 3 mps 674 mmHg 45%
    13:00 +31°C° 0 mm 3 mps 673 mmHg 44%
    14:00 +30°C° 0.1 mm 3 mps 672 mmHg 48%
    15:00 +29°C° 0.1 mm 3 mps 672 mmHg 51%
    16:00 +28°C° 0.1 mm 2 mps 671 mmHg 55%
    17:00 +26°C° 0.3 mm 2 mps 671 mmHg 65%
    18:00 +24°C° 0.3 mm 2 mps 671 mmHg 76%
    19:00 +22°C° 0.3 mm 1 mps 671 mmHg 87%
    20:00 +21°C° 0 mm 1 mps 672 mmHg 86%
    21:00 +21°C° 0 mm 1 mps 672 mmHg 86%
    22:00 +20°C° 0 mm 1 mps 672 mmHg 86%
    23:00 +20°C° 0 mm 1 mps 672 mmHg 84%

    25 August, Sunday

    Time Temperature Precipitation Wind Pressure Humidity
    00:00 +20°C° 0 mm 1 mps 672 mmHg 82%
    01:00 +20°C° 0 mm 1 mps 671 mmHg 80%
    02:00 +20°C° 0 mm 1 mps 671 mmHg 80%
    03:00 +20°C° 0 mm 1 mps 671 mmHg 80%
    04:00 +20°C° 0 mm 1 mps 671 mmHg 80%
    05:00 +21°C° 0 mm 1 mps 671 mmHg 78%
    06:00 +22°C° 0 mm 1 mps 672 mmHg 76%
    07:00 +22°C° 0 mm 1 mps 673 mmHg 73%
    08:00 +24°C° 0.1 mm 1 mps 673 mmHg 68%
    09:00 +26°C° 0.1 mm 1 mps 674 mmHg 62%
    10:00 +28°C° 0.1 mm 2 mps 674 mmHg 57%
    11:00 +29°C° 0.2 mm 2 mps 674 mmHg 54%
    12:00 +29°C° 0.2 mm 2 mps 673 mmHg 51%
    13:00 +30°C° 0.2 mm 3 mps 673 mmHg 49%
    14:00 +29°C° 0.8 mm 3 mps 672 mmHg 58%
    15:00 +27°C° 0.8 mm 2 mps 671 mmHg 67%
    16:00 +26°C° 0.8 mm 2 mps 670 mmHg 77%
    17:00 +24°C° 0.8 mm 2 mps 671 mmHg 82%
    18:00 +23°C° 0.8 mm 1 mps 671 mmHg 88%
    19:00 +21°C° 0.8 mm 1 mps 671 mmHg 94%
    20:00 +21°C° 0.4 mm 1 mps 671 mmHg 94%
    21:00 +21°C° 0.4 mm 1 mps 672 mmHg 93%
    22:00 +21°C° 0.4 mm 1 mps 672 mmHg 93%
    23:00 +21°C° 0.1 mm 1 mps 671 mmHg 93%
    Show more